timestamp,surface_pressure_avg,surface_temp_avg,battery_voltage,lat,long
2023-10-23 00:09:01+00:00,263.4514,11.5,11.37,47.84626,-54.09684
2023-10-23 00:19:00+00:00,250.6731,11.52,11.37,47.84626,-54.09684
2023-10-23 00:29:00+00:00,250.9981,11.51,11.37,47.84626,-54.09684
2023-10-23 00:39:00+00:00,251.608,11.5,11.37,47.84626,-54.09684
2023-10-23 00:49:00+00:00,245.0464,11.5,11.37,47.84626,-54.09684
2023-10-23 00:59:00+00:00,239.2831,11.5,11.37,47.84626,-54.09684
2023-10-23 01:09:00+00:00,242.3347,11.5,11.37,47.84626,-54.09684
2023-10-23 01:19:00+00:00,242.8231,11.5,11.37,47.84626,-54.09684
2023-10-23 01:29:00+00:00,239.5781,11.5,11.37,47.84626,-54.09684
2023-10-23 01:39:00+00:00,235.3381,11.5,11.37,47.84626,-54.09684
2023-10-23 01:49:00+00:00,238.2631,11.5,11.37,47.84626,-54.09684
2023-10-23 01:59:00+00:00,240.328,11.5,11.37,47.84626,-54.09684
2023-10-23 02:09:00+00:00,240.0564,11.5,11.37,47.84626,-54.09684
2023-10-23 02:19:00+00:00,241.1064,11.5,11.37,47.84626,-54.09684
2023-10-23 02:29:00+00:00,242.2481,11.5,11.37,47.84626,-54.09684
2023-10-23 02:39:00+00:00,250.0797,11.5,11.37,47.84626,-54.09684
2023-10-23 02:49:00+00:00,259.3381,11.5,11.37,47.84626,-54.09684
2023-10-23 02:59:00+00:00,261.4447,11.48,11.37,47.84626,-54.09684
2023-10-23 03:09:00+00:00,259.8264,11.46,11.37,47.84626,-54.09684
2023-10-23 03:19:00+00:00,266.5531,11.45,11.37,47.84626,-54.09684
2023-10-23 03:29:00+00:00,274.1447,11.43,11.37,47.84626,-54.09684
2023-10-23 03:39:00+00:00,275.3547,11.42,11.37,47.84626,-54.09684
2023-10-23 03:49:00+00:00,277.558,11.46,11.37,47.84626,-54.09684
2023-10-23 03:59:00+00:00,285.0281,11.47,11.37,47.84626,-54.09684
2023-10-23 04:09:00+00:00,288.2664,11.47,11.37,47.84626,-54.09684
2023-10-23 04:19:00+00:00,288.773,11.48,11.37,47.84626,-54.09684
2023-10-23 04:29:00+00:00,293.0731,11.48,11.37,47.84626,-54.09684
2023-10-23 04:39:00+00:00,295.7263,11.49,11.37,47.84626,-54.09684
2023-10-23 04:49:00+00:00,297.3513,11.49,11.37,47.84626,-54.09684
2023-10-23 04:59:00+00:00,300.8647,11.41,11.37,47.84626,-54.09684
2023-10-23 05:09:00+00:00,303.1664,11.4,11.37,47.84626,-54.09684
2023-10-23 05:19:00+00:00,302.138,11.44,11.37,47.84626,-54.09684
2023-10-23 05:29:00+00:00,309.4163,11.46,11.37,47.84626,-54.09684
2023-10-23 05:39:00+00:00,314.7713,11.46,11.37,47.84626,-54.09684
2023-10-23 05:49:00+00:00,312.1964,11.47,11.37,47.84626,-54.09684
2023-10-23 05:59:00+00:00,310.1497,11.48,11.37,47.84626,-54.09684
2023-10-23 06:09:00+00:00,318.9747,11.5,11.37,47.84626,-54.09684
2023-10-23 06:19:00+00:00,330.8646,11.59,11.37,47.84626,-54.09684
2023-10-23 06:29:00+00:00,332.5696,11.56,11.37,47.84626,-54.09684
2023-10-23 06:39:00+00:00,333.5563,11.4,11.37,47.84626,-54.09684
2023-10-23 06:49:00+00:00,339.0096,11.3,11.37,47.84626,-54.09684
2023-10-23 06:59:00+00:00,341.9313,11.3,11.37,47.84626,-54.09684
2023-10-23 07:09:00+00:00,334.7446,11.3,11.37,47.84626,-54.09684
2023-10-23 07:19:00+00:00,329.8214,11.4,11.37,47.84626,-54.09684
2023-10-23 07:29:00+00:00,329.1564,11.38,11.37,47.84626,-54.09684
2023-10-23 07:39:00+00:00,324.5463,11.4,11.37,47.84626,-54.09684
2023-10-23 07:49:00+00:00,316.9713,11.4,11.37,47.84626,-54.09684
2023-10-23 07:59:00+00:00,312.6247,11.3,11.37,47.84626,-54.09684
2023-10-23 08:09:00+00:00,306.1763,11.3,11.37,47.84626,-54.09684
2023-10-23 08:19:00+00:00,299.4563,11.3,11.37,47.84626,-54.09684
2023-10-23 08:29:00+00:00,297.903,11.32,11.37,47.84626,-54.09684
2023-10-23 08:39:00+00:00,297.3279,11.4,11.37,47.84626,-54.09684
2023-10-23 08:49:00+00:00,290.5147,11.38,11.37,47.84626,-54.09684
2023-10-23 08:59:00+00:00,284.2031,11.37,11.37,47.84626,-54.09684
2023-10-23 09:09:00+00:00,276.6031,11.4,11.37,47.84626,-54.09684
2023-10-23 09:19:00+00:00,266.0864,11.36,11.37,47.84626,-54.09684
2023-10-23 09:29:00+00:00,260.3231,11.4,11.37,47.84626,-54.09684
2023-10-23 09:39:00+00:00,266.3731,11.35,11.37,47.84626,-54.09684
2023-10-23 09:49:00+00:00,265.0464,11.38,11.37,47.84626,-54.09684
2023-10-23 09:59:00+00:00,255.1547,11.38,11.37,47.84626,-54.09684
2023-10-23 10:09:00+00:00,249.9348,11.36,11.37,47.84626,-54.09684
2023-10-23 10:19:00+00:00,265.7131,11.36,11.37,47.84626,-54.09684
2023-10-23 10:29:00+00:00,272.5064,11.3,11.37,47.84626,-54.09684
2023-10-23 10:39:00+00:00,260.3347,11.22,11.37,47.84626,-54.09684
2023-10-23 10:49:00+00:00,253.5281,11.25,11.37,47.84626,-54.09684
2023-10-23 10:59:00+00:00,264.4764,11.28,11.37,47.84626,-54.09684
2023-10-23 11:09:00+00:00,262.9931,11.29,11.37,47.84626,-54.09684
2023-10-23 11:19:00+00:00,250.2881,11.3,11.37,47.84626,-54.09684
2023-10-23 11:29:00+00:00,256.5064,11.3,11.37,47.84626,-54.09684
2023-10-23 11:39:00+00:00,268.1597,11.3,11.37,47.84626,-54.09684
2023-10-23 11:49:00+00:00,264.6081,11.3,11.37,47.84626,-54.09684
2023-10-23 11:59:00+00:00,258.4864,11.29,11.37,47.84626,-54.09684
2023-10-23 12:09:00+00:00,269.1264,11.29,11.37,47.84626,-54.09684
2023-10-23 12:19:00+00:00,267.5764,11.3,11.37,47.84626,-54.09684
2023-10-23 12:29:00+00:00,260.4481,11.3,11.37,47.84626,-54.09684
2023-10-23 12:39:00+00:00,260.7531,11.3,11.37,47.84626,-54.09684
2023-10-23 12:49:00+00:00,270.8198,11.3,11.37,47.84626,-54.09684
2023-10-23 12:59:00+00:00,269.9648,11.3,11.37,47.84626,-54.09684
2023-10-23 13:09:00+00:00,269.3364,11.3,11.37,47.84626,-54.09684
2023-10-23 13:19:00+00:00,269.7248,11.3,11.37,47.84626,-54.09684
2023-10-23 13:29:00+00:00,271.4831,11.3,11.37,47.84626,-54.09684
2023-10-23 13:39:00+00:00,269.9731,11.15,11.37,47.84626,-54.09684
2023-10-23 13:49:00+00:00,272.6064,11.2,11.37,47.84626,-54.09684
2023-10-23 13:59:00+00:00,268.0864,11.13,11.37,47.84626,-54.09684
2023-10-23 14:09:00+00:00,270.2531,11.26,11.37,47.84626,-54.09684
2023-10-23 14:19:00+00:00,275.2047,11.02,11.37,47.84626,-54.09684
2023-10-23 14:29:00+00:00,277.003,11.27,11.37,47.84626,-54.09684
2023-10-23 14:39:00+00:00,274.4581,11.2,11.37,47.84626,-54.09684
2023-10-23 14:49:00+00:00,289.868,11.2,11.37,47.84626,-54.09684
2023-10-23 14:59:00+00:00,296.7513,11.16,11.37,47.84626,-54.09684
2023-10-23 15:09:00+00:00,297.8563,11.21,11.37,47.84626,-54.09684
2023-10-23 15:19:00+00:00,300.7913,11.2,11.37,47.84626,-54.09684
2023-10-23 15:29:00+00:00,314.0297,11.2,11.37,47.84626,-54.09684
2023-10-23 15:39:00+00:00,315.7864,11.11,11.37,47.84626,-54.09684
2023-10-23 15:49:00+00:00,312.8214,11.2,11.37,47.84626,-54.09684
2023-10-23 15:59:00+00:00,323.5896,11.2,11.37,47.84626,-54.09684
2023-10-23 16:09:00+00:00,336.6047,11.1,11.37,47.84626,-54.09684
2023-10-23 16:19:00+00:00,336.4896,11.19,11.37,47.84626,-54.09684
2023-10-23 16:29:00+00:00,336.0813,11.2,11.37,47.84626,-54.09684
2023-10-23 16:39:00+00:00,344.483,11.2,11.37,47.84626,-54.09684
2023-10-23 16:49:00+00:00,353.6863,11.21,11.37,47.84626,-54.09684
2023-10-23 16:59:00+00:00,353.713,11.22,11.37,47.84626,-54.09684
2023-10-23 17:09:00+00:00,353.0579,11.25,11.37,47.84626,-54.09684
2023-10-23 17:19:00+00:00,355.3696,11.23,11.37,47.84626,-54.09684
2023-10-23 17:29:00+00:00,357.0196,11.25,11.37,47.84626,-54.09684
2023-10-23 17:39:00+00:00,354.5495,11.26,11.37,47.84626,-54.09684
2023-10-23 17:49:00+00:00,355.8929,11.28,11.37,47.84626,-54.09684
2023-10-23 17:59:00+00:00,362.7847,11.23,11.37,47.84626,-54.09684
2023-10-23 18:09:00+00:00,365.4396,11.25,11.37,47.84626,-54.09684
2023-10-23 18:19:00+00:00,366.48800000000006,11.25,11.37,47.84626,-54.09684
2023-10-23 18:29:00+00:00,368.5713,11.26,11.37,47.84626,-54.09684
2023-10-23 18:39:00+00:00,369.7112,11.27,11.37,47.84626,-54.09684
2023-10-23 18:49:00+00:00,371.3096,11.28,11.37,47.84626,-54.09684
2023-10-23 18:59:00+00:00,373.2546,11.27,11.37,47.84626,-54.09684
2023-10-23 19:09:00+00:00,369.6313,11.28,11.37,47.84626,-54.09684
2023-10-23 19:19:00+00:00,367.2947,11.27,11.37,47.84626,-54.09684
2023-10-23 19:29:00+00:00,369.4713,11.27,11.37,47.84626,-54.09684
2023-10-23 19:39:00+00:00,365.68300000000005,11.27,11.37,47.84626,-54.09684
2023-10-23 19:49:00+00:00,359.9429,11.27,11.37,47.84626,-54.09684
2023-10-23 19:59:00+00:00,357.4414,11.27,11.37,47.84626,-54.09684
2023-10-23 20:09:00+00:00,354.5513,11.27,11.37,47.84626,-54.09684
2023-10-23 20:19:00+00:00,349.7429,11.24,11.37,47.84626,-54.09684
2023-10-23 20:29:00+00:00,343.2296,11.25,11.37,47.84626,-54.09684
2023-10-23 20:39:00+00:00,333.8447,11.24,11.37,47.84626,-54.09684
2023-10-23 20:49:00+00:00,326.1029,11.26,11.37,47.84626,-54.09684
2023-10-23 20:59:00+00:00,325.4163,11.26,11.37,47.84626,-54.09684
2023-10-23 21:09:00+00:00,320.9396,11.26,11.37,47.84626,-54.09684
2023-10-23 21:19:00+00:00,309.248,11.26,11.37,47.84626,-54.09684
2023-10-23 21:29:00+00:00,304.493,11.27,11.37,47.84626,-54.09684
2023-10-23 21:39:00+00:00,304.6846,11.2,11.37,47.84626,-54.09684
2023-10-23 21:49:00+00:00,294.7347,11.14,11.37,47.84626,-54.09684
2023-10-23 21:59:00+00:00,283.9564,11.1,11.37,47.84626,-54.09684
2023-10-23 22:09:00+00:00,283.9664,11.1,11.37,47.84626,-54.09684
2023-10-23 22:19:00+00:00,283.2796,11.1,11.37,47.84626,-54.09684
2023-10-23 22:29:00+00:00,270.778,11.1,11.37,47.84626,-54.09684
2023-10-23 22:39:00+00:00,263.8231,11.1,11.37,47.84626,-54.09684
2023-10-23 22:49:00+00:00,267.8831,11.16,11.37,47.84626,-54.09684
2023-10-23 22:59:00+00:00,265.048,11.12,11.37,47.84626,-54.09684
2023-10-23 23:09:00+00:00,254.1715,11.2,11.37,47.84626,-54.09684
2023-10-23 23:19:01+00:00,249.9547,11.2,11.3,47.84626,-54.09684
2023-10-23 23:29:01+00:00,255.3481,11.2,11.3,47.84626,-54.09684
2023-10-23 23:39:01+00:00,253.3448,11.16,11.3,47.84626,-54.09684
2023-10-23 23:49:01+00:00,245.9147,11.2,11.3,47.84626,-54.09684
2023-10-23 23:59:01+00:00,243.5715,11.19,11.3,47.84626,-54.09684
